Location: Mountain Grove
(34.0887°N, 86.6172°W)
Time: 15:13:48
(UTC+00:00)

COSMOS 2406 - Pass Details

Date: 14 July 2020
Orbit: 844 x 863 km, 71.0° (Epoch: 13 August)

Event Time Altitude Azimuth Distance (km) Brightness Sun altitude
Exits shadow 07:37:51 49° 305° (NW) 1,106 3.7 -28.9°
Drops below altitude 10° 07:43:06 10° 9° (N) 2,505 6.5 -28.4°
Sets 07:45:40 0° 15° (NNE) 3,444 7.5 -28.1°
